OE8NDR-11 Weather Reports


Display with metric or nautical units.
time (UTC)temp
F
wind
direction
speed
MPH
gust
MPH
rain 1hr
in
rain 24hr
in
rain mn
in
humidity
%
barometer
mb
20260508132803 66 300 3.0 4.0 0.00 0.00 0.00 68 1013.0
20260508132306 65 292 3.0 4.0 0.00 0.00 0.00 66 1013.1
20260508131803 65 303 4.0 6.0 0.00 0.00 0.00 67 1013.0
20260508131303 65 273 5.0 7.0 0.00 0.00 0.00 67 1013.0
20260508130803 65 292 5.0 8.0 0.00 0.00 0.00 67 1013.0
20260508130303 65 286 5.0 8.0 0.00 0.00 0.00 68 1013.1
20260508125803 65 295 6.0 9.0 0.00 0.00 0.00 68 1013.0
20260508125306 65 296 6.0 8.0 0.00 0.00 0.00 68 1013.0
20260508124803 65 288 7.0 9.0 0.00 0.00 0.00 68 1013.2
20260508124303 65 272 7.0 9.0 0.00 0.00 0.00 68 1013.3
20260508123803 65 272 7.0 10.0 0.00 0.00 0.00 67 1013.2
20260508123303 65 289 6.0 9.0 0.00 0.00 0.00 68 1013.3
20260508122803 65 263 6.0 8.0 0.00 0.01 0.00 69 1013.4
20260508122306 65 285 6.0 10.0 0.00 0.01 0.00 69 1013.4
20260508121803 65 278 6.0 9.0 0.00 0.01 0.00 69 1013.4
20260508121303 65 305 7.0 10.0 0.00 0.01 0.00 68 1013.5
20260508120803 65 306 6.0 10.0 0.00 0.01 0.00 69 1013.4
20260508120303 65 310 5.0 9.0 0.00 0.01 0.00 69 1013.5
20260508115803 65 326 5.0 8.0 0.00 0.01 0.00 70 1013.6
20260508115306 65 299 5.0 10.0 0.00 0.01 0.00 70 1013.6
20260508114803 65 304 5.0 9.0 0.00 0.01 0.00 69 1013.5
20260508114303 65 311 6.0 10.0 0.00 0.01 0.00 68 1013.7
20260508113803 65 312 6.0 10.0 0.00 0.01 0.00 68 1013.7
20260508113303 65 321 6.0 9.0 0.00 0.01 0.00 67 1013.7
20260508112803 65 276 8.0 13.0 0.00 0.01 0.00 67 1013.7
20260508112306 65 303 7.0 13.0 0.00 0.01 0.00 67 1013.7
20260508111803 66 298 6.0 11.0 0.00 0.01 0.00 67 1013.7
20260508111303 66 315 7.0 10.0 0.00 0.01 0.00 67 1013.8
20260508110803 66 298 6.0 10.0 0.00 0.01 0.00 66 1013.9
20260508110303 66 304 5.0 8.0 0.00 0.01 0.00 64 1014.0
20260508105803 67 330 5.0 8.0 0.00 0.01 0.00 64 1014.0
20260508105306 67 319 4.0 6.0 0.00 0.01 0.00 62 1014.0
20260508104803 67 311 4.0 7.0 0.00 0.01 0.00 61 1014.0
20260508104303 67 282 6.0 8.0 0.00 0.01 0.00 61 1013.9
20260508103803 67 281 6.0 10.0 0.00 0.01 0.00 61 1014.0
20260508103303 67 286 6.0 9.0 0.00 0.01 0.00 61 1014.1
20260508102803 68 258 6.0 10.0 0.00 0.01 0.00 59 1014.1
20260508102306 68 255 5.0 8.0 0.00 0.01 0.00 57 1014.1
20260508101803 68 250 5.0 8.0 0.00 0.01 0.00 57 1014.2
20260508101304 68 254 5.0 8.0 0.00 0.01 0.00 54 1014.2
20260508100803 69 202 5.0 9.0 0.00 0.01 0.00 54 1014.2
20260508100304 69 169 6.0 9.0 0.00 0.01 0.00 54 1014.2
20260508095803 69 217 8.0 12.0 0.00 0.01 0.00 54 1014.2
20260508095306 69 183 8.0 14.0 0.00 0.01 0.00 53 1014.3
20260508094804 69 184 5.0 10.0 0.00 0.01 0.00 52 1014.3
20260508094304 69 245 2.0 10.0 0.00 0.01 0.00 54 1014.3
20260508093804 68 134 1.0 2.0 0.00 0.01 0.00 60 1014.5
20260508093304 68 238 2.0 4.0 0.00 0.01 0.00 59 1014.5
20260508092804 68 158 2.0 4.0 0.00 0.01 0.00 61 1014.6
20260508092312 68 154 2.0 5.0 0.00 0.01 0.00 61 1014.6
20260508091804 68 59 3.0 5.0 0.00 0.01 0.00 62 1014.5
20260508091304 67 52 2.0 5.0 0.00 0.01 0.00 62 1014.5
20260508090804 67 72 1.0 3.0 0.00 0.01 0.00 58 1014.6
20260508090304 67 58 2.0 3.0 0.00 0.01 0.00 58 1014.6
20260508085804 66 60 3.0 4.0 0.00 0.01 0.00 57 1014.6
20260508085306 66 339 4.0 6.0 0.00 0.01 0.00 57 1014.5
20260508084804 66 355 4.0 9.0 0.00 0.01 0.00 58 1014.4
20260508084304 65 328 4.0 6.0 0.00 0.01 0.00 59 1014.3
20260508083804 65 336 5.0 9.0 0.00 0.01 0.00 58 1014.3
20260508083304 65 5 5.0 9.0 0.00 0.01 0.00 58 1014.3
20260508082804 65 350 4.0 10.0 0.00 0.01 0.00 58 1014.3
20260508082306 65 346 2.0 6.0 0.00 0.01 0.00 57 1014.5
20260508081804 64 306 4.0 6.0 0.00 0.01 0.00 57 1014.6
20260508081304 64 228 5.0 7.0 0.00 0.01 0.00 61 1014.4
20260508080804 64 241 4.0 6.0 0.00 0.01 0.00 61 1014.2
20260508080304 64 238 4.0 6.0 0.00 0.01 0.00 62 1014.3
20260508075804 63 253 5.0 9.0 0.00 0.01 0.00 62 1014.2
20260508075308 63 310 4.0 9.0 0.00 0.01 0.00 63 1014.1
20260508074804 63 324 4.0 8.0 0.00 0.01 0.00 64 1014.2
20260508074304 63 228 4.0 7.0 0.00 0.01 0.00 63 1014.3
20260508073804 63 188 5.0 11.0 0.00 0.01 0.00 64 1014.4
20260508073304 63 344 5.0 11.0 0.00 0.01 0.00 64 1014.2
20260508072804 63 341 4.0 8.0 0.00 0.02 0.00 63 1014.4
20260508072307 63 330 4.0 8.0 0.00 0.02 0.00 62 1014.4
20260508071804 63 348 5.0 9.0 0.00 0.02 0.00 63 1014.4
20260508071304 63 32 5.0 9.0 0.00 0.02 0.00 63 1014.4
20260508070804 63 337 4.0 8.0 0.00 0.02 0.00 65 1014.5
20260508070304 63 336 3.0 6.0 0.00 0.02 0.00 66 1014.5
20260508065804 63 291 3.0 5.0 0.00 0.02 0.00 66 1014.5
20260508065306 63 284 3.0 6.0 0.00 0.02 0.00 66 1014.5
20260508064804 62 298 2.0 5.0 0.00 0.02 0.00 65 1014.6
20260508064304 62 307 2.0 5.0 0.00 0.02 0.00 65 1014.6
20260508063804 62 276 2.0 3.0 0.00 0.02 0.00 65 1014.7
20260508063304 62 294 2.0 4.0 0.00 0.02 0.00 65 1014.5
20260508062804 62 294 2.0 4.0 0.00 0.04 0.00 65 1014.5
20260508062306 62 267 1.0 3.0 0.00 0.04 0.00 66 1014.6
20260508061804 62 262 1.0 3.0 0.00 0.04 0.00 66 1014.6
20260508061304 62 261 1.0 2.0 0.00 0.04 0.00 66 1014.6
20260508060804 62 286 0.0 2.0 0.00 0.04 0.00 65 1014.6
20260508060304 62 266 0.0 0.0 0.00 0.04 0.00 67 1014.5
20260508055804 62 266 1.0 1.0 0.00 0.04 0.00 68 1014.4
20260508055306 61 266 2.0 2.0 0.00 0.04 0.00 67 1014.5
20260508054804 61 266 2.0 3.0 0.00 0.04 0.00 66 1014.4
20260508054304 61 262 3.0 3.0 0.00 0.04 0.00 67 1014.4
20260508053804 61 263 3.0 4.0 0.00 0.04 0.00 67 1014.6
20260508053304 61 263 2.0 4.0 0.00 0.04 0.00 67 1014.5
20260508052804 61 277 2.0 2.0 0.00 0.04 0.00 67 1014.4
20260508052306 61 277 2.0 3.0 0.00 0.04 0.00 67 1014.5
20260508051804 61 291 2.0 4.0 0.00 0.04 0.00 67 1014.5
20260508051304 60 286 2.0 3.0 0.00 0.04 0.00 67 1014.5
20260508050804 60 272 2.0 3.0 0.00 0.04 0.00 67 1014.6
20260508050306 60 271 3.0 3.0 0.00 0.04 0.00 66 1014.6
20260508045804 60 269 3.0 6.0 0.00 0.04 0.00 66 1014.7
20260508045307 60 261 4.0 6.0 0.00 0.04 0.00 66 1014.6
20260508044804 60 289 4.0 7.0 0.00 0.04 0.00 66 1014.6
20260508044304 60 292 3.0 6.0 0.00 0.04 0.00 67 1014.6
20260508043804 60 283 3.0 4.0 0.00 0.04 0.00 66 1014.8
20260508043304 60 284 3.0 5.0 0.00 0.04 0.00 65 1014.7
20260508042804 60 326 3.0 4.0 0.00 0.04 0.00 65 1014.6
20260508042307 60 329 3.0 7.0 0.00 0.04 0.00 65 1014.6
20260508041804 60 282 2.0 7.0 0.00 0.04 0.00 65 1014.6
20260508041304 59 293 1.0 4.0 0.00 0.04 0.00 65 1014.5
20260508040804 59 11 2.0 2.0 0.00 0.04 0.00 65 1014.5
20260508040304 59 11 1.0 4.0 0.00 0.04 0.00 64 1014.4
20260508035804 59 343 1.0 3.0 0.00 0.04 0.00 63 1014.4
20260508035306 59 345 0.0 4.0 0.00 0.04 0.00 63 1014.4
20260508034804 59 48 0.0 0.0 0.00 0.04 0.00 63 1014.4
20260508034304 59 277 1.0 2.0 0.00 0.04 0.00 63 1014.3
20260508033804 59 277 2.0 3.0 0.00 0.04 0.00 63 1014.4
20260508033304 59 265 2.0 3.0 0.00 0.04 0.00 64 1014.4
20260508032804 59 275 2.0 4.0 0.00 0.04 0.00 64 1014.5
20260508032306 59 288 3.0 4.0 0.00 0.04 0.00 65 1014.3
20260508031804 59 298 2.0 4.0 0.00 0.04 0.00 65 1014.3
20260508031304 60 298 2.0 3.0 0.00 0.04 0.00 65 1014.3
20260508030804 60 274 3.0 6.0 0.00 0.04 0.00 64 1014.4
20260508030304 60 290 3.0 5.0 0.00 0.04 0.00 64 1014.5
20260508025804 60 295 4.0 6.0 0.00 0.04 0.00 64 1014.4
20260508025306 60 269 4.0 6.0 0.00 0.04 0.00 64 1014.6
20260508024804 60 269 3.0 6.0 0.00 0.04 0.00 64 1014.5
20260508024304 59 290 2.0 6.0 0.00 0.04 0.00 65 1014.5
20260508023804 59 312 2.0 3.0 0.00 0.04 0.00 64 1014.6
20260508023304 59 314 2.0 3.0 0.00 0.04 0.00 65 1014.6
20260508022804 59 284 2.0 4.0 0.00 0.04 0.00 66 1014.7
20260508022307 59 300 2.0 3.0 0.00 0.04 0.00 66 1014.8
20260508021804 59 325 3.0 5.0 0.00 0.04 0.00 66 1014.8
20260508021304 59 309 3.0 6.0 0.00 0.04 0.00 66 1014.8
20260508020804 59 267 3.0 6.0 0.00 0.04 0.00 66 1014.9
20260508020304 59 298 3.0 4.0 0.00 0.04 0.00 66 1015.0
20260508015804 59 306 3.0 6.0 0.00 0.04 0.00 67 1015.0
20260508015306 60 271 2.0 4.0 0.00 0.04 0.00 66 1015.0
20260508014804 60 304 2.0 3.0 0.00 0.04 0.00 67 1015.0
20260508014304 60 284 2.0 3.0 0.00 0.04 0.00 67 1015.1
20260508013804 59 270 2.0 3.0 0.00 0.04 0.00 67 1015.1
20260508013305 59 279 2.0 3.0 0.00 0.04 0.00 68 1015.1
20260508012804 59 205 2.0 3.0 0.00 0.04 0.00 68 1015.2
20260508012307 60 334 2.0 3.0 0.00 0.04 0.00 68 1015.3
20260508011804 60 348 1.0 3.0 0.00 0.04 0.00 68 1015.2
20260508011304 60 309 1.0 4.0 0.00 0.04 0.00 68 1015.3
20260508010805 60 277 1.0 2.0 0.00 0.04 0.00 69 1015.3
20260508010304 60 286 2.0 5.0 0.00 0.04 0.00 69 1015.3
20260508005804 59 303 3.0 5.0 0.00 0.04 0.00 69 1015.4
20260508005306 59 285 3.0 6.0 0.00 0.04 0.00 70 1015.3
20260508004805 59 282 3.0 6.0 0.00 0.04 0.00 71 1015.3
20260508004305 60 280 2.0 3.0 0.00 0.04 0.00 70 1015.4
20260508003805 60 302 3.0 4.0 0.00 0.04 0.00 70 1015.4
20260508003305 60 335 3.0 4.0 0.00 0.04 0.00 71 1015.3
20260508002805 60 315 3.0 4.0 0.00 0.04 0.00 71 1015.4
20260508002307 60 323 3.0 6.0 0.00 0.04 0.00 71 1015.3
20260508001805 59 275 3.0 6.0 0.00 0.04 0.00 71 1015.3
20260508001305 59 290 2.0 4.0 0.00 0.04 0.00 71 1015.4
20260508000805 59 297 2.0 4.0 0.00 0.04 0.00 71 1015.5
20260508000305 59 325 3.0 5.0 0.00 0.04 0.00 71 1015.6
20260507235805 59 26 4.0 6.0 0.00 0.04 0.00 72 1015.8
20260507235307 59 355 5.0 8.0 0.00 0.04 0.00 74 1015.8
20260507234805 59 308 4.0 7.0 0.00 0.04 0.00 76 1015.9
20260507234305 59 281 3.0 6.0 0.00 0.04 0.00 76 1015.9
20260507233805 59 310 3.0 4.0 0.00 0.04 0.00 77 1016.0
20260507233305 59 290 4.0 6.0 0.00 0.04 0.00 77 1016.1
20260507232805 59 283 3.0 4.0 0.00 0.04 0.00 77 1016.2
20260507232306 59 263 3.0 4.0 0.00 0.04 0.00 77 1016.3
20260507231805 59 306 4.0 5.0 0.00 0.04 0.00 77 1016.3
20260507231305 60 320 4.0 5.0 0.00 0.04 0.00 77 1016.3
20260507230805 60 302 3.0 5.0 0.00 0.04 0.00 77 1016.4
20260507230305 60 288 3.0 4.0 0.00 0.04 0.00 77 1016.4
20260507225805 60 323 3.0 4.0 0.00 0.04 0.00 77 1016.4
20260507225306 60 321 3.0 4.0 0.00 0.04 0.00 77 1016.5
20260507224805 59 295 3.0 6.0 0.00 0.04 0.00 78 1016.5
20260507224305 59 275 3.0 6.0 0.00 0.04 0.00 78 1016.6
20260507223805 59 313 3.0 4.0 0.00 0.04 0.00 78 1016.6
20260507223305 59 311 3.0 4.0 0.00 0.04 0.00 79 1016.6
20260507222805 59 309 4.0 7.0 0.00 0.04 0.00 79 1016.7
20260507222306 59 300 4.0 5.0 0.00 0.04 0.00 79 1016.6
20260507221805 58 301 4.0 6.0 0.00 0.04 0.00 79 1016.6
20260507221305 58 325 3.0 4.0 0.00 0.04 0.00 78 1016.6
20260507220805 58 327 3.0 4.0 0.00 0.04 0.00 78 1016.5
20260507220305 59 331 4.0 5.0 0.00 0.04 0.00 78 1016.6
20260507215805 59 298 2.0 4.0 0.00 0.04 0.04 77 1016.9
20260507215307 59 292 2.0 4.0 0.00 0.04 0.04 77 1016.9
20260507214805 59 286 1.0 3.0 0.00 0.04 0.04 77 1016.8
20260507214305 59 248 0.0 0.0 0.00 0.04 0.04 77 1016.8
20260507213805 59 248 0.0 0.0 0.00 0.04 0.04 76 1016.7
20260507213305 59 247 0.0 0.0 0.00 0.04 0.04 76 1016.8
20260507212805 60 0 1.0 0.0 0.00 0.04 0.04 75 1016.8
20260507212307 60 0 2.0 4.0 0.00 0.04 0.04 74 1016.8
20260507211805 60 0 3.0 4.0 0.00 0.04 0.04 74 1016.8
20260507211305 61 355 3.0 4.0 0.00 0.04 0.04 73 1016.8
20260507210805 61 5 3.0 4.0 0.00 0.04 0.04 73 1016.8
20260507210305 61 5 3.0 4.0 0.00 0.04 0.04 73 1016.9
20260507205805 61 5 3.0 4.0 0.00 0.04 0.04 73 1016.9
20260507205307 61 314 2.0 3.0 0.00 0.04 0.04 72 1017.0
20260507204805 61 282 2.0 2.0 0.00 0.04 0.04 73 1016.9
20260507204305 61 279 2.0 4.0 0.00 0.04 0.04 74 1017.0
20260507203805 60 281 3.0 3.0 0.00 0.04 0.04 74 1017.1
20260507203305 60 279 2.0 4.0 0.00 0.04 0.04 75 1017.1
20260507202805 60 348 2.0 2.0 0.00 0.04 0.04 74 1017.1
20260507202307 60 348 3.0 3.0 0.00 0.04 0.04 75 1017.0
20260507201805 60 348 3.0 4.0 0.00 0.04 0.04 74 1017.0
20260507201305 61 348 3.0 4.0 0.00 0.04 0.04 73 1017.0
20260507200805 61 340 3.0 4.0 0.00 0.04 0.04 72 1017.1
20260507200305 62 28 3.0 4.0 0.00 0.04 0.04 72 1017.1
20260507195805 62 45 1.0 4.0 0.00 0.04 0.04 71 1017.0
20260507195306 62 57 1.0 3.0 0.00 0.04 0.04 71 1017.0
20260507194805 62 101 0.0 2.0 0.00 0.04 0.04 71 1017.0
20260507194305 63 101 0.0 0.0 0.00 0.04 0.04 70 1017.1
20260507193805 63 101 1.0 1.0 0.00 0.04 0.04 70 1017.0
20260507193305 63 101 2.0 3.0 0.00 0.04 0.04 70 1017.1
20260507192805 63 101 1.0 3.0 0.00 0.04 0.04 69 1016.9
20260507192306 63 96 1.0 2.0 0.00 0.04 0.04 68 1017.0
20260507191805 63 96 1.0 2.0 0.00 0.04 0.04 68 1016.9
20260507191305 64 96 1.0 2.0 0.00 0.04 0.04 68 1016.9
20260507190805 64 96 0.0 2.0 0.00 0.04 0.04 68 1017.0
20260507190305 64 96 0.0 0.0 0.00 0.04 0.04 68 1016.9
20260507185805 64 96 0.0 0.0 0.00 0.04 0.04 67 1016.9
20260507185306 64 96 0.0 0.0 0.00 0.04 0.04 67 1016.8
20260507184805 65 96 0.0 0.0 0.00 0.04 0.04 66 1016.7
20260507184305 65 96 1.0 3.0 0.00 0.04 0.04 65 1016.7
20260507183805 65 96 3.0 4.0 0.00 0.04 0.04 64 1016.5
20260507183305 65 96 3.0 4.0 0.00 0.04 0.04 64 1016.5
20260507182805 65 90 2.0 4.0 0.00 0.04 0.04 63 1016.5
20260507182307 66 108 2.0 3.0 0.00 0.04 0.04 63 1016.5
20260507181805 66 145 4.0 7.0 0.00 0.04 0.04 61 1016.5
20260507181305 66 132 3.0 6.0 0.00 0.04 0.04 60 1016.4
20260507180805 67 76 2.0 4.0 0.00 0.04 0.04 59 1016.4
20260507180305 67 338 3.0 3.0 0.00 0.04 0.04 57 1016.4
20260507175805 67 340 3.0 4.0 0.00 0.04 0.04 58 1016.3
20260507175307 67 334 2.0 3.0 0.00 0.04 0.04 58 1016.4
20260507174805 67 314 2.0 3.0 0.00 0.04 0.04 58 1016.4
20260507174305 67 310 2.0 3.0 0.00 0.04 0.04 58 1016.4
20260507173805 67 269 2.0 2.0 0.00 0.04 0.04 57 1016.4
20260507173305 68 269 1.0 2.0 0.00 0.04 0.04 57 1016.4
20260507172805 68 269 1.0 2.0 0.00 0.04 0.04 57 1016.4
20260507172308 68 269 2.0 3.0 0.00 0.04 0.04 57 1016.4
20260507171805 68 269 3.0 7.0 0.00 0.04 0.04 57 1016.4
20260507171305 68 277 5.0 8.0 0.00 0.04 0.04 56 1016.4
20260507170805 69 236 5.0 8.0 0.00 0.04 0.04 56 1016.5
20260507170305 69 250 4.0 9.0 0.00 0.04 0.04 55 1016.5
20260507165805 69 242 5.0 6.0 0.00 0.04 0.04 55 1016.5
20260507165306 69 234 7.0 10.0 0.00 0.04 0.04 55 1016.4
20260507164805 70 237 4.0 11.0 0.00 0.04 0.04 56 1016.5
20260507164305 70 207 1.0 4.0 0.00 0.04 0.04 61 1016.4
20260507163805 71 211 0.0 3.0 0.00 0.04 0.04 60 1016.3
20260507163305 71 281 0.0 0.0 0.00 0.04 0.04 59 1016.3
20260507162805 70 281 1.0 2.0 0.00 0.04 0.04 59 1016.2
20260507162307 70 281 2.0 3.0 0.00 0.04 0.04 60 1016.1
20260507161806 70 269 2.0 3.0 0.00 0.04 0.04 61 1016.1
20260507161306 70 276 1.0 3.0 0.00 0.04 0.04 61 1016.1
20260507160806 70 0 1.0 1.0 0.00 0.04 0.04 63 1016.1
20260507160306 70 0 2.0 2.0 0.00 0.04 0.04 64 1016.1
20260507155806 69 306 3.0 6.0 0.00 0.04 0.04 63 1016.2
20260507155306 69 344 5.0 8.0 0.00 0.04 0.04 63 1016.3
20260507154806 69 348 6.0 9.0 0.00 0.04 0.04 63 1016.2
20260507154306 69 355 6.0 9.0 0.00 0.04 0.04 64 1016.1
20260507153848 69 5 5.0 9.0 0.00 0.04 0.04 63 1016.1
20260507153806 69 5 5.0 9.0 0.00 0.04 0.04 63 1016.1
20260507153500 69 32 4.0 10.0 0.00 0.04 0.04 63 1016.1
20260507153306 69 32 4.0 10.0 0.00 0.04 0.04 63 1016.1
20260507152806 69 329 4.0 5.0 0.00 0.04 0.04 65 1016.0
20260507152306 69 11 6.0 9.0 0.00 0.04 0.04 63 1016.1
20260507151806 69 345 6.0 11.0 0.00 0.04 0.04 64 1016.2
20260507151306 69 355 7.0 11.0 0.00 0.04 0.04 64 1016.3
20260507150806 69 5 8.0 11.0 0.00 0.04 0.04 64 1016.3
20260507150306 69 340 8.0 11.0 0.00 0.04 0.04 64 1016.2
20260507145806 69 340 9.0 13.0 0.00 0.04 0.04 64 1016.4
20260507145307 69 324 9.0 14.0 0.00 0.04 0.04 63 1016.4
20260507144806 69 38 8.0 15.0 0.00 0.04 0.04 63 1016.3
20260507144306 69 0 9.0 14.0 0.00 0.04 0.04 64 1016.4
20260507143806 69 18 11.0 16.0 0.00 0.04 0.04 63 1016.5
20260507143306 69 12 10.0 15.0 0.00 0.04 0.04 63 1016.5
20260507142806 69 19 9.0 15.0 0.00 0.04 0.04 63 1016.4
20260507142307 69 16 8.0 13.0 0.00 0.04 0.04 63 1016.6
20260507141806 70 355 7.0 13.0 0.00 0.04 0.04 62 1016.5
20260507141306 69 355 8.0 10.0 0.00 0.04 0.04 65 1016.5
20260507140806 69 323 8.0 14.0 0.00 0.04 0.04 63 1016.4
20260507140306 69 340 9.0 13.0 0.00 0.04 0.04 63 1016.5
20260507135806 69 5 10.0 13.0 0.00 0.04 0.04 64 1016.5
20260507135306 69 35 9.0 16.0 0.00 0.04 0.04 64 1016.4
20260507134806 69 338 8.0 13.0 0.01 0.04 0.04 64 1016.4
20260507134306 69 349 8.0 13.0 0.01 0.04 0.04 66 1016.5
20260507133806 69 355 8.0 16.0 0.01 0.04 0.04 65 1016.5
20260507133306 69 332 10.0 14.0 0.01 0.04 0.04 66 1016.5